{"data":{"norad_id":65370,"epoch":"2026-05-25T02:14:39.847200Z","epoch_age_seconds":70432,"freshness":"FRESH","line1":"1 65370U 25190V   26145.09351675  .00029624  00000+0  10079-2 0  9993","line2":"2 65370  53.1589 173.2445 0001164  82.5843 277.5290 15.30213796 40982","mean_motion":15.30213796,"eccentricity":0.0001164,"inclination_deg":53.1589,"raan_deg":173.2445,"arg_perigee_deg":82.5843,"mean_anomaly_deg":277.529,"bstar":0.0010079,"rev_number":4098,"period_min":94.104497277712,"perigee_km":474.37615197343,"apogee_km":475.97160274568,"semimajor_km":6853.3108773596,"source":"CELESTRAK","updated_at":"2026-05-25T13:38:20.769180Z"}}